SCP
0 1 1 1 0 0 0 0 0 0 0 0 0 0 0 -0 -0 -0 -0 -0 -0 -0 -0 -0 -0 -0 -0 -0 -0 -0 -0 -0 -0 0 0 -0 0 0 0 0 0 0 0
0 0 0 0 0 0 0 0 0 0 0 0 0 0 0 -0 -0 -0 -0 -0 -0 -0 -0 -0 -0 -0 0 0 0 0 -0 -0 0 -0 -0 -0 0 0 0 0 0 0 0
0 0 0 0 0 0 0 1 0 0 0 0 0 0 0 -0 0 0 -0 -0 -0 -0 -0 -0 -0 0 -0 -0 0 0 -0 0 0 -0 -0 -0 -0 -0 -0 -0 0 0 0
0 0 0 0 0 0 0 0 0 0 0 0 0 0 -0 -0 0 0 -0 -0 -0 -0 -0 -0 0 0 0 -0 0 0 0 -0 -0 0 -0 -0 -0 -0 0 0 0 0 0
0 0 0 0 0 0 0 0 0 0 0 0 0 -0 -0 -0 -0 -0 -0 -0 -0 -0 -0 0 0 -0 -0 0 0 0 0 -0 -0 0 0 -0 -0 0 0 0 0 0 0
0 0 0 0 0 0 0 0 0 0 0 0 0 -0 -0 -0 -0 -0 -0 -0 -0 0 0 0 0 -0 -0 0 0 0 0 0 0 0 0 -0 -0 -0 0 0 0 0 0
0 0 0 0 0 0 0 0 0 0 0 0 -0 -0 -0 -0 -0 -0 -0 -0 0 0 0 0 0 -0 -0 -0 -0 0 0 0 0 0 0 -0 -0 -0 0 0 0 0 0
0 0 0 0 0 0 0 -0 0 0 0 -0 -0 -0 -0 -0 -0 -0 -0 0 0 0 0 0 0 0 -0 -0 -0 0 0 0 0 0 0 -0 -0 -0 0 0 0 0 0
0 0 0 0 0 -0 -0 0 0 -0 -0 -0 -0 -0 -0 -0 -0 0 0 0 0 0 0 0 0 0 0 -0 -0 0 0 0 0 0 -0 -0 0 0 0 0 0 0 0
0 0 0 0 0 -0 -0 0 0 -0 -0 0 0 0 0 -0 0 0 0 0 0 0 0 0 0 0 0 0 -0 0 0 0 -0 0 0 -0 0 0 0 0 0 0 0
0 0 -0 -0 -0 -0 0 -0 -0 0 0 0 0 -0 0 -0 -0 0 0 0 0 0 0 0 0 0 0 0 0 0 0 0 0 0 0 0 0 0 0 0 0 0 0
-0 -0 0 0 0 -0 -0 -0 -0 -0 0 0 0 -0 -0 -0 -0 0 0 0 0 0 0 0 0 0 0 0 0 0 0 0 0 0 0 0 0 0 0 0 0 0 0
-0 -0 0 -0 -0 -0 -0 -0 -0 -0 -0 -0 0 -0 0 0 0 0 0 0 0 0 0 0 0 0 0 0 0 0 0 0 0 0 0 0 0 0 0 0 0 0 0
0 0 -0 -0 -0 -0 -0 -0 0 0 -0 0 0 0 0 0 0 0 0 0 0 0 0 0 0 0 0 0 0 0 0 0 0 0 0 0 0 0 0 0 0 0 0
-0 -0 -0 -0 0 -0 0 -0 -0 -0 0 0 0 0 0 0 0 0 0 0 0 0 0 0 0 0 0 0 0 0 0 0 0 0 0 0 0 0 0 0 0 0 0
-0 -0 -0 -0 -0 -0 -0 -0 0 -0 0 0 0 0 0 0 0 0 0 0 0 0 0 0 0 0 0 0 0 0 0 0 0 0 0 0 0 0 0 0 0 0 0
-0 -0 -0 -0 -0 -0 -0 0 0 0 0 0 0 0 0 0 0 0 0 0 0 0 0 0 0 0 0 0 0 0 0 0 0 0 0 0 0 0 0 0 0 0 0
-0 -0 -0 -0 0 0 0 0 0 0 0 0 0 0 0 0 0 0 0 0 0 0 0 0 0 0 0 0 0 0 0 0 0 0 0 0 0 0 0 0 0 0 0
-0 -0 -0 0 0 0 0 0 0 0 0 0 0 0 0 0 0 0 0 0 0 0 0 0 0 0 0 0 0 0 0 0 0 0 0 0 0 0 0 0 0 0 0
-0 0 0 0 0 0 0 0 0 0 0 0 0 0 0 0 0 0 0 0 0 0 0 0 0 0 0 0 0 0 0 0 0 0 0 0 0 0 0 0 0 0 0
-0 -0 0 0 0 0 0 0 0 0 0 0 0 0 0 0 0 0 0 0 0 0 0 0 0 0 0 0 0 0 0 0 0 0 0 0 0 0 0 0 0 0 0
0 -0 0 0 0 0 0 0 0 0 0 0 0 0 0 0 0 0 0 0 0 0 0 0 0 0 0 0 0 0 0 0 0 0 0 0 0 0 0 0 0 0 0
0 0 0 0 0 0 0 0 0 0 0 0 0 0 0 0 0 0 0 0 0 0 0 0 0 0 0 0 0 0 0 0 0 0 0 0 0 0 0 0 0 0 0
0 0 0 0 0 0 0 0 0 0 0 0 0 0 0 0 0 0 0 0 0 0 0 0 0 0 0 0 0 0 0 0 0 0 0 0 0 0 0 0 0 0 0
1 1 0 -0 0 0 0 0 0 0 0 0 0 0 0 0 0 0 0 0 0 0 0 0 0 0 0 0 0 0 0 0 0 0 0 0 0 0 0 0 0 0 0
1 0 0 0 0 0 0 0 0 0 0 0 0 0 0 0 0 0 0 0 0 0 0 0 0 0 0 0 0 0 0 0 0 0 0 0 0 0 0 0 0 0 0
Wind_Speed_500mb
56 52 49 46 46 45 44 42 39 37 35 32 30 28 28 29 32 33 36 35 35 37 39 40 43 46 48 46 42 40 42 39 33 30 24 22 26 24 15 15 18 21 23
66 45 48 47 47 47 45 41 37 35 34 30 27 28 27 29 34 33 33 34 35 38 43 47 50 52 53 52 51 48 43 36 30 27 23 26 27 27 19 15 16 19 21
51 53 50 53 51 48 45 40 37 34 31 28 26 27 28 32 33 32 31 32 37 42 46 49 52 54 53 48 47 46 39 30 30 30 26 24 34 28 18 17 17 17 18
61 70 60 57 51 48 43 39 35 33 31 27 26 28 30 31 32 31 30 34 39 44 46 48 52 55 58 50 39 40 44 36 25 30 27 25 38 25 21 19 19 18 19
74 69 63 58 53 47 42 38 36 33 29 26 27 27 30 31 30 30 33 37 39 41 42 43 46 49 53 54 45 34 37 36 30 30 26 28 43 37 25 21 19 17 16
68 64 58 54 49 45 41 35 32 31 28 27 27 28 28 29 29 32 35 38 37 36 35 35 38 41 46 49 46 35 34 42 31 22 26 24 36 46 35 27 21 18 17
65 61 57 52 46 44 42 31 26 26 25 26 26 28 27 28 30 33 34 35 32 30 28 28 32 36 40 45 42 42 42 32 42 27 22 26 37 42 35 30 28 25 22
69 62 57 51 47 46 34 29 26 25 24 26 26 28 27 28 29 31 31 30 27 24 21 22 27 31 34 37 39 33 33 42 37 32 28 35 39 39 40 28 26 26 28
54 50 44 34 30 45 27 27 27 22 23 24 28 29 28 27 26 25 23 22 19 17 17 20 24 25 26 27 32 24 22 34 36 30 36 37 36 39 41 31 25 25 25
37 33 32 30 28 34 31 27 24 22 25 27 32 32 30 28 24 21 14 12 11 14 16 18 22 17 20 20 16 18 21 24 27 30 32 33 36 41 43 30 23 22 23
45 52 52 49 43 38 34 31 26 25 30 34 34 31 28 22 21 21 19 17 16 21 16 20 23 15 13 21 27 25 28 30 27 24 27 30 37 39 39 35 26 22 22
58 47 42 38 32 31 29 30 28 33 36 37 31 26 23 20 17 18 18 16 20 17 17 18 16 13 21 21 24 23 30 30 25 24 33 40 33 38 38 37 33 28 23
57 51 42 41 37 27 29 39 33 33 36 40 25 26 23 20 17 11 8 4 15 19 12 10 8 6 3 10 16 26 31 31 30 26 27 31 32 35 39 34 35 33 26
59 56 53 48 40 37 38 40 35 34 27 32 25 23 10 8 4 6 6 5 5 5 6 10 10 12 15 20 32 32 28 31 29 29 32 30 35 39 42 42 41 41 41
55 57 49 43 38 36 36 39 32 25 26 22 17 10 3 5 6 10 8 7 5 7 13 22 21 26 33 39 35 20 25 28 24 21 27 30 31 32 43 43 36 35 38
54 54 53 55 47 49 45 42 34 31 27 17 10 1 10 12 9 7 6 5 3 16 22 23 27 33 35 28 24 29 30 27 28 27 28 32 36 34 32 39 28 30 34
54 41 47 59 51 48 43 40 31 28 14 9 11 4 8 10 5 5 7 7 13 17 22 27 34 36 36 33 39 27 27 29 33 35 32 25 38 41 40 26 27 29 35
48 41 67 56 49 45 38 36 23 11 6 2 10 12 12 8 7 5 8 12 15 17 25 28 27 23 27 36 33 23 25 34 36 33 38 35 30 22 15 13 22 27 21
34 59 52 49 45 44 44 29 12 12 8 14 17 13 14 11 6 5 12 17 18 9 15 24 29 33 43 31 28 34 34 33 33 31 28 22 9 11 26 28 25 35 32
42 57 50 45 47 49 37 13 18 23 25 22 17 11 10 7 6 6 11 18 22 21 23 29 35 41 33 34 40 45 27 27 30 29 24 24 25 23 25 25 27 30 32
46 58 51 49 49 48 25 18 33 32 24 16 12 16 8 6 9 11 15 21 28 30 31 35 35 33 37 44 43 40 42 31 20 29 33 30 33 44 46 45 49 49 53
56 52 44 43 45 40 29 24 30 27 20 16 14 12 10 4 10 17 24 25 29 32 35 31 34 38 32 33 36 38 25 38 20 28 34 38 48 40 43 36 36 35 31
60 57 45 37 37 44 43 41 46 35 27 25 23 16 9 14 19 24 28 32 35 37 38 39 37 32 29 27 32 28 15 11 42 22 40 16 28 36 39 37 38 34 29
58 52 44 39 47 39 58 48 54 48 43 39 35 26 19 22 27 31 35 33 31 34 34 33 33 34 37 40 31 26 27 31 32 29 24 32 30 37 41 49 34 39 45
58 57 50 52 53 57 49 50 52 49 50 49 39 29 17 23 28 31 31 30 33 33 29 25 27 29 33 31 27 32 37 41 28 32 43 42 45 44 38 34 44 44 40
51 52 56 62 62 58 51 51 54 58 59 47 34 21 20 30 28 29 29 30 32 26 25 27 29 30 31 33 40 35 30 17 23 29 33 44 46 47 46 49 41 45 46
Wind_Direction_500mb
159 156 158 151 145 142 137 131 127 122 117 113 106 95 92 89 89 89 87 81 74 69 69 69 68 67 65 64 66 72 72 68 56 40 32 46 43 46 35 23 19 20 23
151 157 157 152 149 143 137 134 128 123 118 112 103 99 95 92 95 95 87 80 75 78 79 76 72 69 65 66 71 76 71 58 48 46 48 54 38 34 28 23 26 26 22
146 161 163 155 151 143 139 135 130 126 118 112 107 103 100 100 101 94 86 84 88 88 84 79 73 66 64 68 77 76 66 57 75 40 56 22 22 20 33 28 31 28 23
161 161 162 153 148 143 140 137 131 124 119 112 109 106 104 107 103 94 91 91 93 92 88 80 73 66 60 62 78 74 66 62 63 42 32 20 1 8 21 26 33 24 15
156 158 156 152 146 145 143 136 133 127 116 112 111 109 112 111 103 97 97 98 97 92 86 76 66 60 55 56 65 79 69 51 45 30 23 13 24 18 24 26 27 24 21
155 153 150 146 146 143 136 130 131 119 116 113 113 114 116 114 108 106 105 103 101 97 89 74 64 55 49 52 60 67 67 49 43 17 12 14 7 13 14 19 22 21 19
150 147 146 146 147 141 129 130 126 125 119 118 118 121 122 114 111 112 110 108 103 97 86 72 59 49 44 46 53 51 53 44 27 21 17 12 9 13 9 16 16 11 9
142 144 147 148 141 111 121 136 132 127 121 125 125 121 116 115 116 114 113 111 105 96 85 65 53 47 44 41 47 45 45 29 23 25 10 5 359 357 358 5 9 8 5
142 147 117 96 135 112 138 136 135 129 124 124 119 119 116 111 112 116 117 113 106 90 69 54 50 48 43 40 44 42 29 33 18 6 356 352 355 348 346 346 349 351 350
143 115 115 130 130 128 138 143 137 129 121 120 116 117 112 113 109 106 111 107 91 65 55 52 45 50 35 35 31 25 6 10 0 1 345 338 341 336 336 339 338 338 333
130 109 106 139 146 142 151 140 128 121 119 119 120 122 116 107 100 76 75 67 55 43 42 39 35 15 359 347 349 347 340 343 346 326 334 335 336 332 331 335 327 322 322
131 127 127 143 146 145 133 125 126 124 122 122 113 113 105 90 70 69 69 78 59 50 54 31 28 16 8 10 355 348 343 340 341 329 315 322 333 339 339 335 334 326 315
139 150 151 156 140 134 137 135 134 135 129 132 111 120 125 142 144 136 143 158 102 92 52 67 351 346 315 337 351 337 335 339 328 333 317 310 328 343 337 332 326 322 313
147 147 154 146 129 125 119 118 119 113 116 137 137 131 170 167 211 197 206 176 218 264 287 279 279 274 302 316 320 328 325 329 342 341 336 321 311 323 326 320 320 318 316
147 144 142 143 136 149 146 140 135 133 139 138 129 122 168 289 227 197 219 277 288 291 308 297 299 303 304 309 321 317 317 326 322 325 351 342 332 329 319 314 307 311 316
147 150 151 148 152 154 151 149 145 157 158 135 91 308 248 253 272 252 283 260 239 304 311 309 307 307 309 314 318 313 315 307 303 300 301 327 320 312 328 309 299 304 308
156 158 154 153 154 159 164 157 158 177 179 250 350 185 236 243 260 267 262 242 303 317 306 299 296 304 307 306 315 312 319 314 302 298 299 307 328 322 319 301 298 309 307
163 154 148 160 161 162 151 158 173 217 302 257 132 131 135 146 158 209 260 299 306 300 290 292 302 295 292 297 318 301 310 312 311 308 300 302 316 10 8 312 311 318 308
167 153 161 165 167 164 164 170 265 226 197 161 157 153 149 169 176 247 299 310 317 309 273 275 281 292 304 318 308 306 308 322 329 313 317 318 310 15 7 341 307 305 301
166 161 173 175 170 171 175 195 187 153 161 162 162 184 154 163 132 240 271 297 302 297 282 285 293 301 306 301 300 302 301 293 313 298 306 293 292 304 328 338 325 318 307
172 172 181 175 174 179 188 191 157 163 167 159 165 166 202 288 319 309 290 277 290 297 298 298 303 303 306 305 305 296 302 301 282 275 286 298 311 312 311 307 315 316 317
179 179 183 184 184 191 188 169 174 170 172 158 187 189 184 231 290 293 298 298 302 305 308 309 305 306 307 299 300 299 316 308 279 283 284 289 308 307 304 316 329 323 323
182 184 186 178 185 185 204 183 174 179 168 166 168 171 218 289 305 307 300 300 301 301 302 303 302 306 303 296 294 297 319 325 325 315 335 323 301 297 302 309 326 321 316
182 190 186 178 177 196 185 183 180 180 177 174 180 195 232 277 293 302 300 302 307 304 300 295 291 286 290 293 287 277 286 305 341 332 319 324 317 311 305 303 322 318 317
191 184 182 185 186 183 190 203 196 194 189 186 195 221 273 308 311 303 305 309 310 313 307 300 301 297 289 290 304 308 299 298 290 302 315 315 309 312 319 317 313 318 315
208 188 194 192 192 194 196 200 201 199 198 203 218 248 303 312 298 299 308 312 317 315 304 308 299 295 294 299 303 307 299 299 294 299 304 311 317 320 317 312 307 308 305
Wind_Speed_850mb
56 52 49 46 46 45 44 42 39 37 35 32 30 28 28 29 32 33 36 35 35 37 39 40 43 46 48 46 42 40 42 39 33 30 24 22 26 24 15 15 18 21 23
66 45 48 47 47 47 45 41 37 35 34 30 27 28 27 29 34 33 33 34 35 38 43 47 50 52 53 52 51 48 43 36 30 27 23 26 27 27 19 15 16 19 21
51 53 50 53 51 48 45 40 37 34 31 28 26 27 28 32 33 32 31 32 37 42 46 49 52 54 53 48 47 46 39 30 30 30 26 24 34 28 18 17 17 17 18
61 70 60 57 51 48 43 39 35 33 31 27 26 28 30 31 32 31 30 34 39 44 46 48 52 55 58 50 39 40 44 36 25 30 27 25 38 25 21 19 19 18 19
74 69 63 58 53 47 42 38 36 33 29 26 27 27 30 31 30 30 33 37 39 41 42 43 46 49 53 54 45 34 37 36 30 30 26 28 43 37 25 21 19 17 16
68 64 58 54 49 45 41 35 32 31 28 27 27 28 28 29 29 32 35 38 37 36 35 35 38 41 46 49 46 35 34 42 31 22 26 24 36 46 35 27 21 18 17
65 61 57 52 46 44 42 31 26 26 25 26 26 28 27 28 30 33 34 35 32 30 28 28 32 36 40 45 42 42 42 32 42 27 22 26 37 42 35 30 28 25 22
69 62 57 51 47 46 34 29 26 25 24 26 26 28 27 28 29 31 31 30 27 24 21 22 27 31 34 37 39 33 33 42 37 32 28 35 39 39 40 28 26 26 28
54 50 44 34 30 45 27 27 27 22 23 24 28 29 28 27 26 25 23 22 19 17 17 20 24 25 26 27 32 24 22 34 36 30 36 37 36 39 41 31 25 25 25
37 33 32 30 28 34 31 27 24 22 25 27 32 32 30 28 24 21 14 12 11 14 16 18 22 17 20 20 16 18 21 24 27 30 32 33 36 41 43 30 23 22 23
45 52 52 49 43 38 34 31 26 25 30 34 34 31 28 22 21 21 19 17 16 21 16 20 23 15 13 21 27 25 28 30 27 24 27 30 37 39 39 35 26 22 22
58 47 42 38 32 31 29 30 28 33 36 37 31 26 23 20 17 18 18 16 20 17 17 18 16 13 21 21 24 23 30 30 25 24 33 40 33 38 38 37 33 28 23
57 51 42 41 37 27 29 39 33 33 36 40 25 26 23 20 17 11 8 4 15 19 12 10 8 6 3 10 16 26 31 31 30 26 27 31 32 35 39 34 35 33 26
59 56 53 48 40 37 38 40 35 34 27 32 25 23 10 8 4 6 6 5 5 5 6 10 10 12 15 20 32 32 28 31 29 29 32 30 35 39 42 42 41 41 41
55 57 49 43 38 36 36 39 32 25 26 22 17 10 3 5 6 10 8 7 5 7 13 22 21 26 33 39 35 20 25 28 24 21 27 30 31 32 43 43 36 35 38
54 54 53 55 47 49 45 42 34 31 27 17 10 1 10 12 9 7 6 5 3 16 22 23 27 33 35 28 24 29 30 27 28 27 28 32 36 34 32 39 28 30 34
54 41 47 59 51 48 43 40 31 28 14 9 11 4 8 10 5 5 7 7 13 17 22 27 34 36 36 33 39 27 27 29 33 35 32 25 38 41 40 26 27 29 35
48 41 67 56 49 45 38 36 23 11 6 2 10 12 12 8 7 5 8 12 15 17 25 28 27 23 27 36 33 23 25 34 36 33 38 35 30 22 15 13 22 27 21
34 59 52 49 45 44 44 29 12 12 8 14 17 13 14 11 6 5 12 17 18 9 15 24 29 33 43 31 28 34 34 33 33 31 28 22 9 11 26 28 25 35 32
42 57 50 45 47 49 37 13 18 23 25 22 17 11 10 7 6 6 11 18 22 21 23 29 35 41 33 34 40 45 27 27 30 29 24 24 25 23 25 25 27 30 32
46 58 51 49 49 48 25 18 33 32 24 16 12 16 8 6 9 11 15 21 28 30 31 35 35 33 37 44 43 40 42 31 20 29 33 30 33 44 46 45 49 49 53
56 52 44 43 45 40 29 24 30 27 20 16 14 12 10 4 10 17 24 25 29 32 35 31 34 38 32 33 36 38 25 38 20 28 34 38 48 40 43 36 36 35 31
60 57 45 37 37 44 43 41 46 35 27 25 23 16 9 14 19 24 28 32 35 37 38 39 37 32 29 27 32 28 15 11 42 22 40 16 28 36 39 37 38 34 29
58 52 44 39 47 39 58 48 54 48 43 39 35 26 19 22 27 31 35 33 31 34 34 33 33 34 37 40 31 26 27 31 32 29 24 32 30 37 41 49 34 39 45
58 57 50 52 53 57 49 50 52 49 50 49 39 29 17 23 28 31 31 30 33 33 29 25 27 29 33 31 27 32 37 41 28 32 43 42 45 44 38 34 44 44 40
51 52 56 62 62 58 51 51 54 58 59 47 34 21 20 30 28 29 29 30 32 26 25 27 29 30 31 33 40 35 30 17 23 29 33 44 46 47 46 49 41 45 46
Wind_Direction_850mb
159 156 158 151 145 142 137 131 127 122 117 113 106 95 92 89 89 89 87 81 74 69 69 69 68 67 65 64 66 72 72 68 56 40 32 46 43 46 35 23 19 20 23
151 157 157 152 149 143 137 134 128 123 118 112 103 99 95 92 95 95 87 80 75 78 79 76 72 69 65 66 71 76 71 58 48 46 48 54 38 34 28 23 26 26 22
146 161 163 155 151 143 139 135 130 126 118 112 107 103 100 100 101 94 86 84 88 88 84 79 73 66 64 68 77 76 66 57 75 40 56 22 22 20 33 28 31 28 23
161 161 162 153 148 143 140 137 131 124 119 112 109 106 104 107 103 94 91 91 93 92 88 80 73 66 60 62 78 74 66 62 63 42 32 20 1 8 21 26 33 24 15
156 158 156 152 146 145 143 136 133 127 116 112 111 109 112 111 103 97 97 98 97 92 86 76 66 60 55 56 65 79 69 51 45 30 23 13 24 18 24 26 27 24 21
155 153 150 146 146 143 136 130 131 119 116 113 113 114 116 114 108 106 105 103 101 97 89 74 64 55 49 52 60 67 67 49 43 17 12 14 7 13 14 19 22 21 19
150 147 146 146 147 141 129 130 126 125 119 118 118 121 122 114 111 112 110 108 103 97 86 72 59 49 44 46 53 51 53 44 27 21 17 12 9 13 9 16 16 11 9
142 144 147 148 141 111 121 136 132 127 121 125 125 121 116 115 116 114 113 111 105 96 85 65 53 47 44 41 47 45 45 29 23 25 10 5 359 357 358 5 9 8 5
142 147 117 96 135 112 138 136 135 129 124 124 119 119 116 111 112 116 117 113 106 90 69 54 50 48 43 40 44 42 29 33 18 6 356 352 355 348 346 346 349 351 350
143 115 115 130 130 128 138 143 137 129 121 120 116 117 112 113 109 106 111 107 91 65 55 52 45 50 35 35 31 25 6 10 0 1 345 338 341 336 336 339 338 338 333
130 109 106 139 146 142 151 140 128 121 119 119 120 122 116 107 100 76 75 67 55 43 42 39 35 15 359 347 349 347 340 343 346 326 334 335 336 332 331 335 327 322 322
131 127 127 143 146 145 133 125 126 124 122 122 113 113 105 90 70 69 69 78 59 50 54 31 28 16 8 10 355 348 343 340 341 329 315 322 333 339 339 335 334 326 315
139 150 151 156 140 134 137 135 134 135 129 132 111 120 125 142 144 136 143 158 102 92 52 67 351 346 315 337 351 337 335 339 328 333 317 310 328 343 337 332 326 322 313
147 147 154 146 129 125 119 118 119 113 116 137 137 131 170 167 211 197 206 176 218 264 287 279 279 274 302 316 320 328 325 329 342 341 336 321 311 323 326 320 320 318 316
147 144 142 143 136 149 146 140 135 133 139 138 129 122 168 289 227 197 219 277 288 291 308 297 299 303 304 309 321 317 317 326 322 325 351 342 332 329 319 314 307 311 316
147 150 151 148 152 154 151 149 145 157 158 135 91 308 248 253 272 252 283 260 239 304 311 309 307 307 309 314 318 313 315 307 303 300 301 327 320 312 328 309 299 304 308
156 158 154 153 154 159 164 157 158 177 179 250 350 185 236 243 260 267 262 242 303 317 306 299 296 304 307 306 315 312 319 314 302 298 299 307 328 322 319 301 298 309 307
163 154 148 160 161 162 151 158 173 217 302 257 132 131 135 146 158 209 260 299 306 300 290 292 302 295 292 297 318 301 310 312 311 308 300 302 316 10 8 312 311 318 308
167 153 161 165 167 164 164 170 265 226 197 161 157 153 149 169 176 247 299 310 317 309 273 275 281 292 304 318 308 306 308 322 329 313 317 318 310 15 7 341 307 305 301
166 161 173 175 170 171 175 195 187 153 161 162 162 184 154 163 132 240 271 297 302 297 282 285 293 301 306 301 300 302 301 293 313 298 306 293 292 304 328 338 325 318 307
172 172 181 175 174 179 188 191 157 163 167 159 165 166 202 288 319 309 290 277 290 297 298 298 303 303 306 305 305 296 302 301 282 275 286 298 311 312 311 307 315 316 317
179 179 183 184 184 191 188 169 174 170 172 158 187 189 184 231 290 293 298 298 302 305 308 309 305 306 307 299 300 299 316 308 279 283 284 289 308 307 304 316 329 323 323
182 184 186 178 185 185 204 183 174 179 168 166 168 171 218 289 305 307 300 300 301 301 302 303 302 306 303 296 294 297 319 325 325 315 335 323 301 297 302 309 326 321 316
182 190 186 178 177 196 185 183 180 180 177 174 180 195 232 277 293 302 300 302 307 304 300 295 291 286 290 293 287 277 286 305 341 332 319 324 317 311 305 303 322 318 317
191 184 182 185 186 183 190 203 196 194 189 186 195 221 273 308 311 303 305 309 310 313 307 300 301 297 289 290 304 308 299 298 290 302 315 315 309 312 319 317 313 318 315
208 188 194 192 192 194 196 200 201 199 198 203 218 248 303 312 298 299 308 312 317 315 304 308 299 295 294 299 303 307 299 299 294 299 304 311 317 320 317 312 307 308 305